Location: *
(41.7492°S, 135.4150°W)
Time: 19:07:49
(UTC+00:00)

Cosmos 1190 Rocket - Pass Details

Date: 20 September 2021
Orbit: 757 x 779 km, 74.1° (Epoch: 16 October)

Event Time Altitude Azimuth Distance (km) Brightness Sun altitude
Exits shadow 13:23:23 16° 334° (NNW) 1,908 5.7 -17.5°
Maximum altitude 13:27:35 75° 250° (WSW) 803 3.9 -16.7°
Drops below altitude 10° 13:32:54 10° 163° (SSE) 2,342 6.9 -15.8°
Sets 13:35:20 0° 161° (SSE) 3,280 7.7 -15.3°
